Location: Dr�swein
(50.5891°N, 11.9239°E)
Time: 03:43:41
(UTC+00:00)

Daily predictions for brighter satellites

Satellite Brightness Start Highest point End
(mag) Time Altitude Azimuth Time Altitude Azimuth Time Altitude Azimuth
CENTAUR R/B 4.3 01:48:26 21° ESE 01:49:04 21° ESE 01:53:56 10° ENE
ADEOS II 4.4 01:47:16 10° NNE 01:48:31 18° NNE 01:48:31 18° NNE
USA 238 DEB 4.2 02:19:35 48° SE 02:19:53 48° ESE 02:26:26 10° NE
USA 238 4.2 02:19:40 47° SE 02:19:59 48° ESE 02:26:32 10° NE
NOSS 3-2 (A) 4.0 02:24:30 51° ESE 02:24:30 51° ESE 02:30:26 10° NE
CZ-2C R/B 4.3 02:21:41 10° NE 02:25:54 26° E 02:27:56 20° SE
Lacrosse 4 Rocket 3.9 02:31:40 16° ESE 02:31:40 16° ESE 02:34:05 10° ENE
IDEFIX/ARIANE 42P 3.7 02:32:37 10° NNE 02:35:46 37° NNE 02:35:46 37° NNE
USA 234 3.2 02:34:36 10° ENE 02:41:06 67° NNW 02:41:14 67° NNW
Cosmos 2279 Rocket 4.1 02:42:57 10° N 02:49:11 72° ENE 02:55:21 10° SSE
NOSS 3-3 (A) 4.4 02:49:53 67° WSW 02:49:59 67° SW 02:58:13 10° SSE
NOSS 3-3 (C) 4.4 02:50:06 67° SW 02:50:06 67° SW 02:58:13 10° SSE
Cosmos 1656 3.8 02:49:55 63° N 02:50:40 72° ENE 02:56:21 10° SE
ADEOS Rocket 2.9 02:49:34 10° SSE 02:55:01 72° ENE 03:00:38 10° NNW
Cosmos 2344 3.5 02:56:53 51° SSW 02:59:00 81° SE 03:07:13 10° NE
Lacrosse 5 rocket 3.8 03:00:14 12° SE 03:00:48 13° SE 03:02:29 10° E
Cosmos 1697 Rocket 3.2 03:03:55 18° NNW 03:08:03 57° NE 03:13:38 10° SE
Cosmos 1536 Rocket 4.0 03:11:56 49° SE 03:12:49 61° E 03:17:16 10° NNE
NOSS 3-2 (C) 3.5 03:21:46 42° SSW 03:23:51 76° SE 03:30:31 10° NE
MSX 3.8 03:20:47 10° N 03:26:23 56° WNW 03:26:51 54° W
SL-16 R/B 4.4 03:28:04 11° NNW 03:28:56 11° NNW 03:30:27 10° N
CZ-4B R/B 2.3 03:25:36 10° SSE 03:28:59 51° ENE 03:30:17 31° NNE
Cosmos 44 Rocket 3.3 03:29:14 62° SW 03:29:14 62° SW 03:34:18 10° SSE
Cosmos 1980 Rocket 3.1 03:24:21 10° NNW 03:29:48 48° NE 03:35:12 10° SE
ADEOS II 4.1 03:28:07 10° NNW 03:29:27 14° NNW 03:29:27 14° NNW
PSLV R/B 3.4 03:31:13 10° NNE 03:35:31 82° WNW 03:36:13 61° SSW
ARIANE 5 R/B 3.9 03:33:37 10° N 03:36:09 23° NNW 03:36:09 23° NNW
CENTAUR R/B 2.5 03:35:39 34° SW 03:38:37 88° SE 03:45:56 10° NE
Cosmos 2360 4.3 03:34:51 10° NNW 03:40:31 77° ENE 03:46:13 10° SE
Intercosmos 24 4.3 03:36:47 10° N 03:40:57 58° ENE 03:44:27 10° SSE
ERS-2 2.6 03:44:48 10° S 03:47:31 46° SSW 03:47:31 46° SSW
KORONAS-FOTON 3.7 03:51:42 53° SW 03:52:25 67° WNW 03:56:19 10° N
SAR-Lupe-4 3.7 03:51:11 10° SSE 03:54:45 73° ENE 03:58:21 10° N
Cosmos 967 Rocket 4.4 03:49:43 16° NW 03:54:57 85° SW 04:01:14 10° SE
Cosmos 2278 3.9 03:50:30 10° NNW 03:56:11 72° ENE 04:01:50 10° SE
ALOS 2.5 03:52:21 10° NNE 03:57:02 71° ESE 04:01:42 10° S
SL-14 R/B 4.0 03:54:12 10° S 03:58:05 56° E 04:02:03 10° NNE
CZ-3 R/B 4.5 03:43:26 13° SW 03:59:19 26° SSW 04:06:53 10° SE
Cosmos 2322 Rocket 4.1 03:55:09 10° NNW 03:59:59 27° NE 04:04:44 10° E
Nadezhda 4 Rocket 3.9 03:57:55 10° S 04:04:02 84° W 04:10:14 10° N
CZ-2C R/B 2.6 03:59:31 10° N 04:04:23 49° WNW 04:07:18 22° SW
Cosmos 1300 2.8 04:01:36 10° N 04:05:27 76° E 04:09:15 10° SSE
Cosmos 1726 Rocket 3.7 04:01:31 10° N 04:06:00 76° E 04:10:27 10° SSE
Abrixas rocket 2.4 04:06:51 44° S 04:06:51 44° S 04:09:33 10° ESE
ADEOS 3.5 04:01:45 10° NNE 04:07:01 88° ESE 04:12:15 10° SSW
ISS -2.1 04:07:09 18° SSW 04:09:00 29° SSE 04:11:58 10° E
PSLV R/B 4.4 04:05:07 10° SSE 04:09:17 65° ENE 04:13:29 10° N
PAYLOAD A 4.4 04:04:37 10° N 04:09:21 42° WNW 04:12:19 21° SW
GP-B 4.3 04:10:49 25° NW 04:10:49 25° NW 04:13:25 10° NNW
Lacrosse 4 Rocket 1.2 04:08:01 33° SW 04:09:41 65° NW 04:13:45 10° NNE
USA 238 DEB 3.9 04:07:03 26° WSW 04:10:49 55° NW 04:17:42 10° NE
USA 238 3.9 04:07:08 26° WSW 04:10:54 55° NW 04:17:48 10° NE
Cosmos 1833 Rocket 2.7 04:05:16 10° SSW 04:10:55 85° ESE 04:16:37 10° NNE
Cosmos 1689 Rocket 2.3 04:09:10 10° SSE 04:12:05 68° ENE 04:15:00 10° N
SAR-Lupe-1 3.9 04:08:49 10° S 04:12:23 77° WSW 04:16:00 10° NNW
USA 290 3.9 04:10:47 10° S 04:13:46 35° ESE 04:16:46 10° NE
Cosmos 1025 Rocket 4.0 04:14:23 27° WNW 04:14:23 27° WNW 04:18:01 10° N
NOSS 3-2 (A) 3.9 04:11:54 26° W 04:15:05 48° NNW 04:21:46 10° NE
Cosmos 1484 Rocket 2.6 04:11:51 10° N 04:15:45 73° WNW 04:19:33 10° SSW
Meteor 1-24 Rocket 4.0 04:10:41 10° S 04:16:17 73° E 04:22:07 10° NNE
IDEFIX/ARIANE 42P 4.1 04:13:25 10° NNW 04:16:34 18° NW 04:16:34 18° NW
Cosmos 1674 3.3 04:16:30 33° W 04:16:56 34° WNW 04:20:27 10° N
Cosmos 2228 3.0 04:14:44 10° NNW 04:19:03 62° W 04:23:22 10° S
Cosmos 2369 3.7 04:13:39 10° NW 04:19:13 56° WSW 04:24:42 10° S
Cosmos 1269 Rocket 4.3 04:15:37 18° SW 04:19:18 48° WNW 04:24:29 10° NNE
Cosmos 1606 Rocket 3.5 04:16:34 10° NNW 04:21:00 63° W 04:25:25 10° S
CZ-4B R/B 3.6 04:18:44 10° NNE 04:22:39 57° E 04:26:45 10° S
USA 234 3.7 04:17:24 10° ENE 04:23:41 51° N 04:28:35 17° WNW
ATLAS 3B R/B 3.0 04:18:17 10° SSW 04:24:46 66° SE 04:31:24 10° NE
Cosmos 1626 2.1 04:22:22 10° SSW 04:26:01 58° WNW 04:29:41 10° N
METEOR-M 4.1 04:21:45 10° NNE 04:27:07 81° WNW 04:32:27 10° SSW
Cosmos 2082 Rocket 2.5 04:23:53 10° SSW 04:29:27 71° ESE 04:35:04 10° NNE
COSMO-SKYMED 1 2.5 04:25:58 10° S 04:30:19 72° WSW 04:34:41 10° NNW
SL-16 R/B 3.2 04:29:34 10° NNW 04:35:05 48° NE 04:40:33 10° SE
Lacrosse 5 rocket 1.2 04:35:54 12° SW 04:39:15 72° SE 04:43:04 10° ENE
Meteor 2-5 Rocket 3.8 04:34:02 10° SSW 04:39:41 63° WNW 04:45:29 10° N
Meteor 1-31 Rocket 2.9 04:35:53 10° N 04:39:45 55° WNW 04:43:36 10° SSW
Cosmos 2333 Rocket 4.4 04:36:27 10° N 04:40:20 18° NNE 04:44:12 10° ENE
ADEOS Rocket 3.9 04:37:25 10° SW 04:41:17 19° W 04:45:13 10° NW
CREW DRAGON DEMO-1 DEB 2.7 04:42:58 21° WNW 04:44:49 81° SSW 04:47:50 10° ESE
Meteor PRIRODA 3.6 04:41:31 10° NNE 04:45:12 88° ESE 04:48:52 10° SSW
Meteor 2-8 Rocket 4.5 04:39:16 10° NNW 04:45:28 85° W 04:51:38 10° S
Cosmos 1553 Rocket 4.1 04:40:02 10° N 04:46:13 79° E 04:52:18 10° SSE
deb Kosmos-1763 4.1 04:44:38 10° SW 04:48:10 54° WNW 04:51:42 10° NNE
COSMOS 2406 3.5 04:42:46 10° SW 04:48:14 46° NW 04:53:42 10° NNE
Okean 1-7 Rocket 3.7 04:43:57 10° S 04:48:30 85° E 04:53:03 10° N
Cosmos 1428 Rocket 4.5 04:44:11 10° S 04:50:25 83° W 04:56:39 10° N
deb Chang Zheng 4 3.9 04:46:33 10° N 04:50:33 41° WNW 04:54:33 10° SW
CZ-4B R/B 4.3 04:46:30 10° N 04:50:37 45° WNW 04:54:32 10° SW
Cosmos 2058 Rocket 3.1 04:46:26 10° NNW 04:50:55 62° W 04:55:19 10° S
Cosmos 1697 Rocket 3.5 04:46:55 10° NW 04:51:42 29° WSW 04:56:29 10° SSW
Cosmos 1455 2.9 04:51:02 10° N 04:54:51 58° ENE 04:58:40 10° SSE
ARGOS Delta rocket 4.3 04:55:08 10° N 05:00:19 53° WNW 05:05:37 10° SW
ASTRO F (AKARI) 4.4 04:57:39 10° N 05:01:15 67° WNW 05:04:39 10° SSW
CZ-4B R/B 3.2 04:59:40 10° WSW 05:01:31 14° W 05:03:21 10° WNW
Cosmos 2026 Rocket 4.0 04:55:15 10° SSW 05:01:37 68° WNW 05:07:59 10° N
Cosmos 2360 Rocket 3.5 04:57:02 10° NNW 05:02:18 38° NE 05:07:31 10° ESE
FENGYUN 3A 4.2 04:59:05 10° N 05:04:03 37° WNW 05:09:00 10° SW
Cosmos 1892 Rocket 3.7 05:01:10 10° SSW 05:05:22 48° WNW 05:09:39 10° N
Cosmos 1400 Rocket 3.6 05:03:53 10° NNW 05:07:21 29° W 05:10:46 10° SSW
Cosmos 2084 4.1 05:05:18 10° SSW 05:09:34 62° SE 05:13:56 10° NE
H-2A R/B 3.1 05:05:31 10° NNE 05:09:57 67° ESE 05:14:13 10° S
Cosmos 1980 Rocket 2.8 05:08:38 10° NW 05:13:40 35° WSW 05:18:40 10° S
Cosmos 2344 4.3 05:07:15 10° W 05:14:21 41° NNW 05:22:52 10° NE
NOSS 3-2 (C) 4.2 05:09:42 10° W 05:15:23 39° NNW 05:21:55 10° NE
YAOGAN 6 3.3 05:12:10 10° NNE 05:15:50 60° E 05:19:28 10° S
Cosmos 2251 Rocket 3.8 05:14:26 10° SW 05:19:40 51° WNW 05:24:53 10° NNE
Meteor 2-15 4.4 05:13:55 10° NNW 05:20:01 72° W 05:26:02 10° S
MOS 1 Rocket 3.0 05:17:39 10° S 05:21:56 73° WSW 05:26:15 10° NNW
Okean O Rocket 2.8 05:19:07 10° NNE 05:23:21 48° E 05:27:34 10° S
CZ-2C R/B 3.4 05:20:25 10° SSE 05:25:55 63° ENE 05:31:29 10° N
